Weather Service Report


536 
ASUS43 KBIS 012302
RWRND 

NORTH DAKOTA REGIONAL WEATHER ROUNDUP
NATIONAL WEATHER SERVICE BISMARCK ND
600 PM CDT FRI JUL 01 2016

NOTE: "FAIR" INDICATES FEW OR NO CLOUDS BELOW 12,000 FEET WITH NO
SIGNIFICANT WEATHER AND/OR OBSTRUCTIONS TO VISIBILITY.


NDZ001>003-009>011-017-020000-
NORTHWEST NORTH DAKOTA
  
CITY           SKY/WX    TMP DP  RH WIND       PRES   REMARKS
WILLISTON      MOSUNNY   79  56  45 SE7       29.96F                  
MINOT          SUNNY     74  51  44 E16       30.04F                  
$$
 
NDZ018>021-031>035-040>046-020000-
SOUTHWEST NORTH DAKOTA
  
CITY           SKY/WX    TMP DP  RH WIND       PRES   REMARKS
BISMARCK       CLOUDY    64  55  72 E16       30.06F                  
DICKINSON      SUNNY     75  55  49 SE14G24   29.98F                  
GARRISON         N/A     69  58  67 SE14      30.03F                  
HETTINGER ARPT SUNNY     77  56  48 S17G24    30.01F                  
$$
 
NDZ004>008-012>016-024-026-027-054-020000-
NORTHEAST NORTH DAKOTA
  
CITY           SKY/WX    TMP DP  RH WIND       PRES   REMARKS
GRAND FORKS    PTSUNNY   73  45  36 VRB7      30.10F                  
DEVILS LAKE    CLOUDY    68  44  42 SE9       30.11S                  
$$
 
NDZ022-023-025-028>030-036>039-047>053-020000-
SOUTHEAST NORTH DAKOTA
  
CITY           SKY/WX    TMP DP  RH WIND       PRES   REMARKS
FARGO          SUNNY     74  42  31 VRB3      30.09F                  
JAMESTOWN      CLOUDY    71  48  43 S7        30.09F                  
$$ 

  


561 
ASUS43 KBIS 012302
RWRBIS

NWR BROADCAST TEXT
NATIONAL WEATHER SERVICE BISMARCK ND
600 PM CDT FRI JUL 01 2016

NOTE: "FAIR" INDICATES FEW OR NO CLOUDS BELOW 12,000 FEET WITH NO
SIGNIFICANT WEATHER AND/OR OBSTRUCTIONS TO VISIBILITY.

  
CITY           SKY/WX    TMP DP  RH WIND       PRES   REMARKS
WILLISTON      MOSUNNY   79  56  45 SE7       29.96F                  
MINOT          SUNNY     74  51  44 E16       30.04F                  
MINOT AFB      NOT AVBL                                               
BISMARCK       CLOUDY    64  55  72 E16       30.06F                  
DICKINSON      SUNNY     75  55  49 SE14G24   29.98F                  
GARRISON         N/A     69  58  67 SE14      30.03F                  
HETTINGER ARPT SUNNY     77  56  48 S17G24    30.01F                  
JAMESTOWN      CLOUDY    71  48  43 S7        30.09F                  
CARRINGTON     FAIR      72  46  40 S12       30.10F                  
HAZEN          FAIR      68  54  60 SE14G22   30.04F                  
MANDAN         MOCLDY    66  55  68 E16       30.07S                  
OAKES            N/A    N/A N/A N/A MISG        N/A                   
STANLEY        FAIR      70  59  68 SE13G20   30.05S                  
$$
  
CITY           SKY/WX    TMP DP  RH WIND       PRES   REMARKS
GRAND FORKS    PTSUNNY   73  45  36 VRB7      30.10F                  
GRAND FORKS AF NOT AVBL                                               
DEVILS LAKE    CLOUDY    68  44  42 SE9       30.11S                  
FARGO          SUNNY     74  42  31 VRB3      30.09F                  
CAVALIER       FAIR      72  46  40 S7        30.10F                  
GRAFTON        FAIR      70  46  43 S7        30.12F                  
GWINNER        FAIR      75  48  38 E8        30.09F                  
LANGDON        FAIR      68  48  49 S8        30.12F                  
ROLLA          FAIR      66  43  42 SE13      30.11F                  
$$
  
CITY           SKY/WX    TMP DP  RH WIND       PRES   REMARKS
ABERDEEN       MOSUNNY   78  42  27 S10       30.07F                  
MOBRIDGE       MOSUNNY   79  50  36 S12       30.02F                  
BUFFALO          N/A     77  54  44 S25G33    29.93F                  
RAPID CITY     MOSUNNY   68  56  65 SE18      30.06F                  
GLASGOW        PTSUNNY   77  60  55 NE14      29.92F                  
SIDNEY         MOSUNNY   82  61  48 SE8       29.92F                  
WOLF POINT     MOSUNNY   77  60  55 NE14      29.92F                  
GLENDIVE       SUNNY     86  55  35 SE7G20    29.93F                  
MILES CITY     SUNNY     92  47  21 VRB3      29.86F                  
BAKER          MOSUNNY   85  55  35 S17       29.95F                  
$$
  
CITY           SKY/WX    TMP DP  RH WIND       PRES   REMARKS
BILLINGS       CLOUDY    85  46  25 W3        29.93S                  
GREAT FALLS    SUNNY     88  37  16 NW7       29.92F                  
$$

  

Return to Home page


Western Regional Climate Center, wrcc@dri.edu